Weather History for Denver, CO

Change the Weather History Date:

Wednesday, May 22, 2013

  Actual Average Record
Temperature  
Mean Temperature 59 °F 59 °F  
Max Temperature 77 °F 74 °F 93 °F (2012)
Min Temperature 40 °F 45 °F 32 °F (1930)
Degree Days  
Heating Degree Days 6 7  
Month to date heating degree days 225 217  
Since 1 July heating degree days 6027 5948  
Cooling Degree Days 0 1  
Month to date cooling degree days 25 7  
Year to date cooling degree days 25 8  
Growing Degree Days 10 (Base 50)    
Moisture  
Dew Point 37 °F    
Average Humidity 51    
Maximum Humidity 83    
Minimum Humidity 19    
Precipitation  
Precipitation 0.06 in 0.07 in 6.50 in (1876)
Month to date precipitation 0.73 1.47  
Year to date precipitation 5.15 4.88  
Snow  
Snow 0.00 in - - ()
Month to date snowfall 3.4  
Since 1 July snowfall 78.4  
Snow Depth 0.00 in    
Sea Level Pressure  
Sea Level Pressure 29.83 in    
Wind  
Wind Speed 9 mph (East)    
Max Wind Speed 30 mph    
Max Gust Speed 36 mph    
Visibility 10 miles    
Events Rain , Thunderstorm    
T = Trace of Precipitation, MM = Missing Value Source: NWS Daily Summary

Daily Weather History Graph

Daily Weather History Graph

Search for Another Location

Airport:

Trip Planner

Search our weather history database for the weather conditions in past years. The results will help you decide how hot, cold, wet, or windy it might be!

Date:

Astronomy

May. 22, 2013 Rise Set
Actual Time 5:37 AM MDT 8:13 PM MDT
Civil Twilight 5:06 AM MDT 8:44 PM MDT
Nautical Twilight 4:27 AM MDT 9:23 PM MDT
Astronomical Twilight 3:44 AM MDT 10:07 PM MDT
Moon 5:38 PM MDT (5/22) 3:43 AM MDT (5/22)
Length of Visible Light 15h 38m
Length of Day
14h 35m
Waxing Gibbous, 92% of the Moon is Illuminated
May 22
Waxing Gibbous
May 24
Full
May 31
Last Quarter
Jun 8
New
Jun 16
First Quarter

Hourly Weather History & Observations

Time (MDT) Temp. Windchill Dew Point Humidity Pressure Visibility Wind Dir Wind Speed Gust Speed Precip Events Conditions
12:53 AM 46.0 °F 43.1 °F 33.1 °F 61% 29.88 in 10.0 mi SE 5.8 mph - N/A   Scattered Clouds
1:53 AM 46.9 °F - 33.1 °F 59% 29.85 in 10.0 mi SE 4.6 mph - N/A   Partly Cloudy
2:53 AM 42.1 °F 37.1 °F 33.1 °F 70% 29.84 in 10.0 mi SE 8.1 mph - N/A   Partly Cloudy
3:53 AM 43.0 °F 38.8 °F 34.0 °F 71% 29.82 in 10.0 mi South 6.9 mph - N/A   Partly Cloudy
4:53 AM 42.1 °F 39.2 °F 34.0 °F 73% 29.81 in 10.0 mi SW 4.6 mph - N/A   Partly Cloudy
5:53 AM 44.1 °F 39.5 °F 35.1 °F 71% 29.81 in 10.0 mi WSW 8.1 mph - N/A   Scattered Clouds
6:53 AM 48.9 °F - 36.0 °F 61% 29.81 in 10.0 mi WSW 4.6 mph - N/A   Scattered Clouds
7:53 AM 55.0 °F - 35.1 °F 47% 29.82 in 10.0 mi West 6.9 mph - N/A   Scattered Clouds
8:53 AM 57.0 °F - 35.1 °F 44% 29.83 in 10.0 mi West 5.8 mph - N/A   Scattered Clouds
9:53 AM 61.0 °F - 36.0 °F 39% 29.83 in 10.0 mi Calm Calm - N/A   Partly Cloudy
10:53 AM 64.9 °F - 36.0 °F 34% 29.81 in 10.0 mi Calm Calm - N/A   Partly Cloudy
11:53 AM 69.1 °F - 36.0 °F 30% 29.80 in 10.0 mi Variable 4.6 mph - N/A   Partly Cloudy
12:53 PM 72.0 °F - 35.1 °F 26% 29.77 in 10.0 mi East 9.2 mph - N/A   Partly Cloudy
1:53 PM 73.9 °F - 35.1 °F 24% 29.75 in 10.0 mi ENE 6.9 mph - N/A   Partly Cloudy
2:53 PM 75.0 °F - 33.1 °F 22% 29.75 in 10.0 mi ENE 8.1 mph - N/A   Scattered Clouds
3:53 PM 75.9 °F - 33.1 °F 21% 29.74 in 10.0 mi East 15.0 mph 19.6 mph N/A   Scattered Clouds
4:53 PM 75.9 °F - 30.9 °F 19% 29.74 in 10.0 mi East 9.2 mph 19.6 mph N/A   Scattered Clouds
5:53 PM 75.0 °F - 32.0 °F 21% 29.73 in 10.0 mi East 11.5 mph - N/A   Scattered Clouds
6:53 PM 72.0 °F - 35.1 °F 26% 29.74 in 10.0 mi East 11.5 mph - N/A   Scattered Clouds
7:53 PM 64.0 °F - 44.1 °F 48% 29.80 in 8.0 mi ENE 26.5 mph 32.2 mph 0.00 in Rain Light Rain
8:02 PM 62.6 °F - 44.6 °F 52% 29.96 in 8.0 mi ENE 17.3 mph 34.5 mph 0.00 in Rain , Thunderstorm Light Thunderstorms and Rain
8:34 PM 59.0 °F - 46.4 °F 63% 30.00 in 10.0 mi NNE 12.7 mph - 0.00 in Rain Light Rain
8:53 PM 57.9 °F - 46.9 °F 67% 29.90 in 7.0 mi North 8.1 mph 20.7 mph 0.00 in Rain Light Rain
9:53 PM 55.0 °F - 48.0 °F 77% 29.93 in 10.0 mi East 16.1 mph - 0.03 in Rain Light Rain
10:53 PM 53.1 °F - 48.0 °F 83% 29.91 in 10.0 mi ENE 17.3 mph - 0.03 in   Scattered Clouds
11:53 PM 52.0 °F - 46.9 °F 83% 29.92 in 10.0 mi East 12.7 mph - N/A   Mostly Cloudy